Date String (YYYY-MM-DD hh:mm:ss) UTC,Instrument flags,Ambient pressure (hPa),Sample flow (lpm),Bypass flow (lpm),Sample temperature (°C),Ambient temperature (°C),ASC tube jacket temperature (°C),LED temperature (°C),Box temperature (°C),Sample RH (%),Span deviation,Mass concentration (μg/m³),Mass concentration (μg/m³),Mass concentration (μg/m³)
DateTimeUTC,F1_M11,P_M11,Q1_M11,Q2_M11,T1_M11,T2_M11,T3_M11,T4_M11,T5_M11,U1_M11,ZSPAN_M11,X0_M11,X2_M11,X1_M11
2023-01-08 20:00:00,,0824.6,5.00,0.00,23.1,22.1,00.0,31.8,24.8,09.0,-000.1,0008.14,0004.72,0004.52
2023-01-08 20:01:00,,0824.6,5.00,0.00,23.1,22.1,00.0,31.8,24.9,08.9,-000.2,0008.16,0004.73,0004.55
2023-01-08 20:02:00,,0824.6,5.00,0.00,23.1,22.1,00.0,31.8,24.9,08.4,-000.6,0008.23,0004.79,0004.60
2023-01-08 20:03:00,,0824.6,5.01,0.00,23.1,22.1,00.0,31.8,24.9,08.1,-000.7,0008.30,0004.83,0004.63
2023-01-08 20:04:00,,0824.7,5.01,0.00,23.1,22.1,00.0,31.8,24.9,07.9,-000.6,0008.32,0004.86,0004.66
2023-01-08 20:05:00,,0824.6,5.00,0.00,23.2,22.1,00.0,31.8,24.9,07.3,-000.9,0008.17,0004.87,0004.69
2023-01-08 20:06:00,,0824.6,5.00,0.00,23.2,22.1,00.0,31.9,24.9,07.0,-001.1,0007.99,0004.87,0004.68
2023-01-08 20:07:00,,0824.6,5.00,0.00,23.2,22.2,00.0,31.9,25.0,07.1,-001.2,0008.17,0004.91,0004.68
2023-01-08 20:08:00,,0824.7,4.99,0.00,23.2,22.2,00.0,31.9,25.0,07.3,-001.5,0008.32,0004.94,0004.70
2023-01-08 20:09:00,,0824.5,4.99,0.00,23.2,22.2,00.0,31.9,25.1,07.4,-001.2,0008.43,0005.03,0004.79
2023-01-08 20:10:00,,0824.8,4.99,0.00,23.2,22.2,00.0,32.0,25.1,07.2,-001.1,0008.71,0005.10,0004.84
2023-01-08 20:11:00,,0824.7,5.01,0.00,23.3,22.2,00.0,32.0,25.1,07.5,-000.9,0008.86,0005.14,0004.87
2023-01-08 20:12:00,,0824.4,5.00,0.00,23.3,22.2,00.0,32.0,25.1,07.8,-000.7,0008.87,0005.16,0004.90
2023-01-08 20:13:00,,0824.4,4.99,0.00,23.3,22.2,00.0,32.0,25.1,07.6,-000.6,0008.89,0005.19,0004.93
2023-01-08 20:14:00,,0824.4,4.99,0.00,23.3,22.3,00.0,32.0,25.1,07.5,-000.4,0008.89,0005.19,0004.93
2023-01-08 20:15:00,,0824.5,4.99,0.00,23.3,22.3,00.0,32.0,25.1,07.3,0000.1,0008.90,0005.17,0004.89
2023-01-08 20:16:00,,0824.7,5.01,0.00,23.3,22.3,00.0,32.0,25.1,07.0,-000.2,0008.88,0005.13,0004.85
2023-01-08 20:17:00,,0824.5,5.00,0.00,23.4,22.3,00.0,32.0,25.1,07.2,0000.5,0008.91,0005.11,0004.81
2023-01-08 20:18:00,,0824.5,5.00,0.00,23.4,22.4,00.0,32.1,25.2,07.5,0000.3,0009.40,0005.10,0004.82
2023-01-08 20:19:00,,0824.4,5.00,0.00,23.4,22.4,00.0,32.1,25.2,08.3,0000.2,0009.42,0005.11,0004.85
2023-01-08 20:20:00,,0824.4,5.00,0.00,23.4,22.4,00.0,32.1,25.3,10.0,0000.1,0009.55,0005.19,0004.92
2023-01-08 20:21:00,,0824.3,5.00,0.00,23.4,22.2,00.0,32.1,25.2,09.6,-000.1,0009.70,0005.35,0005.06
2023-01-08 20:22:00,,0824.3,4.99,0.00,23.4,22.1,00.0,32.1,25.2,10.0,-000.2,0009.86,0005.54,0005.25
2023-01-08 20:23:00,,0824.4,4.98,0.00,23.4,22.1,00.0,32.1,25.2,10.0,-000.7,0010.18,0005.74,0005.43
2023-01-08 20:24:00,,0824.4,4.99,0.00,23.4,22.2,00.0,32.2,25.2,10.3,-000.9,0010.45,0005.91,0005.61
2023-01-08 20:25:00,,0824.4,5.01,0.00,23.4,22.2,00.0,32.1,25.1,10.2,-001.1,0010.94,0006.11,0005.80
2023-01-08 20:26:00,,0824.4,5.00,0.00,23.4,22.3,00.0,32.2,25.1,09.8,-001.4,0011.70,0006.31,0006.00
2023-01-08 20:27:00,,0824.3,5.00,0.00,23.4,22.4,00.0,32.2,25.2,09.4,-001.4,0011.97,0006.47,0006.14
2023-01-08 20:28:00,,0824.3,5.00,0.00,23.5,22.4,00.0,32.2,25.2,08.2,-001.4,0012.12,0006.62,0006.30
2023-01-08 20:29:00,,0824.4,5.00,0.00,23.5,22.5,00.0,32.2,25.2,07.7,-001.6,0011.78,0006.71,0006.41
2023-01-08 20:30:00,,0824.4,4.99,0.00,23.5,22.5,00.0,32.2,25.2,08.2,-001.4,0011.77,0006.79,0006.48
2023-01-08 20:31:00,,0824.6,5.00,0.00,23.5,22.6,00.0,32.2,25.3,07.8,-001.6,0012.27,0006.72,0006.41
2023-01-08 20:32:00,,0824.5,5.00,0.00,23.6,22.6,00.0,32.2,25.4,08.4,-001.7,0012.06,0006.61,0006.30
2023-01-08 20:33:00,,0824.5,5.00,0.00,23.6,22.6,00.0,32.3,25.4,09.3,-001.9,0012.03,0006.53,0006.23
2023-01-08 20:34:00,,0824.4,5.00,0.00,23.6,22.7,00.0,32.3,25.5,08.8,-001.9,0011.86,0006.37,0006.06
2023-01-08 20:35:00,,0824.3,5.00,0.00,23.6,22.7,00.0,32.3,25.5,07.5,-001.7,0011.40,0006.06,0005.75
2023-01-08 20:36:00,,0824.1,5.00,0.00,23.7,22.7,00.0,32.3,25.5,06.8,-001.7,0010.70,0005.65,0005.38
2023-01-08 20:37:00,,0824.1,4.99,0.00,23.7,22.6,00.0,32.4,25.5,06.7,-001.6,0009.57,0005.24,0004.98
2023-01-08 20:38:00,,0824.1,5.00,0.00,23.7,22.5,00.0,32.4,25.5,07.0,-001.5,0009.13,0004.96,0004.73
2023-01-08 20:39:00,,0824.2,5.02,0.00,23.6,22.4,00.0,32.4,25.5,07.8,-001.2,0008.88,0004.81,0004.58
2023-01-08 20:40:00,,0824.3,5.01,0.00,23.6,22.3,00.0,32.4,25.4,08.1,-000.9,0009.03,0004.91,0004.66
2023-01-08 20:41:00,,0824.2,5.01,0.00,23.6,22.3,00.0,32.4,25.4,09.0,-000.7,0009.23,0005.06,0004.80
2023-01-08 20:42:00,,0824.1,5.00,0.00,23.6,22.3,00.0,32.4,25.4,09.4,-000.2,0008.71,0005.21,0004.96
2023-01-08 20:43:00,,0824.1,5.00,0.00,23.6,22.3,00.0,32.4,25.4,08.1,0000.4,0008.87,0005.40,0005.15
2023-01-08 20:44:00,,0824.2,5.01,0.00,23.6,22.2,00.0,32.4,25.4,07.2,0000.8,0008.77,0005.41,0005.17
2023-01-08 20:45:00,,0824.3,5.01,0.00,23.6,22.2,00.0,32.4,25.3,07.2,0000.8,0008.57,0005.34,0005.10
2023-01-08 20:46:00,,0824.2,5.01,0.00,23.6,22.3,00.0,32.4,25.3,09.1,0000.2,0008.83,0005.54,0005.29
2023-01-08 20:47:00,,0824.2,5.01,0.00,23.6,22.3,00.0,32.4,25.4,08.0,0000.3,0009.14,0005.79,0005.51
2023-01-08 20:48:00,,0824.2,5.00,0.00,23.6,22.4,00.0,32.4,25.3,06.3,0000.4,0009.14,0005.77,0005.50
2023-01-08 20:49:00,,0824.3,5.00,0.00,23.6,22.5,00.0,32.4,25.3,06.4,0000.4,0009.08,0005.71,0005.43
2023-01-08 20:50:00,,0824.2,5.00,0.00,23.6,22.5,00.0,32.4,25.4,06.4,0000.2,0008.86,0005.50,0005.24
2023-01-08 20:51:00,,0824.2,5.00,0.00,23.7,22.6,00.0,32.4,25.5,05.8,0000.2,0008.42,0005.03,0004.80
2023-01-08 20:52:00,,0824.2,5.00,0.00,23.7,22.6,00.0,32.4,25.5,06.4,0000.2,0007.73,0004.53,0004.33
2023-01-08 20:53:00,,0824.3,4.99,0.00,23.7,22.7,00.0,32.4,25.5,06.9,0000.1,0007.12,0004.14,0003.95
2023-01-08 20:54:00,,0824.1,5.00,0.00,23.7,22.6,00.0,32.4,25.6,07.6,-000.5,0006.26,0003.82,0003.65
2023-01-08 20:55:00,,0824.1,4.99,0.00,23.7,22.5,00.0,32.5,25.6,08.9,-000.6,0006.16,0003.78,0003.62
2023-01-08 20:56:00,,0824.1,4.99,0.00,23.7,22.5,00.0,32.5,25.5,08.7,-000.6,0006.57,0003.96,0003.80
2023-01-08 20:57:00,,0824.1,5.01,0.00,23.7,22.5,00.0,32.5,25.5,08.4,0000.7,0006.59,0003.95,0003.79
2023-01-08 20:58:00,,0824.1,5.00,0.00,23.7,22.5,00.0,32.5,25.5,08.9,0001.0,0007.09,0004.07,0003.87
2023-01-08 20:59:00,,0824.1,5.00,0.00,23.7,22.6,00.0,32.5,25.5,08.8,0000.6,0007.97,0004.44,0004.24
